TimeEST,TemperatureF,Dew PointF,Humidity,Sea Level PressureIn,VisibilityMPH,Wind Direction,Wind SpeedMPH,Gust SpeedMPH,PrecipitationIn,Events,Conditions,WindDirDegrees,DateUTC
12:54 AM,30.9,19.0,61,29.86,10.0,WSW,12.7,-,N/A,,Scattered Clouds,240,2013-01-05 05:54:00
1:54 AM,30.9,19.0,61,29.88,10.0,SW,15.0,-,N/A,,Overcast,230,2013-01-05 06:54:00
2:54 AM,32.0,19.9,61,29.89,10.0,SW,15.0,-,N/A,,Overcast,230,2013-01-05 07:54:00
3:54 AM,30.9,19.9,64,29.90,10.0,SW,13.8,-,N/A,,Clear,230,2013-01-05 08:54:00
4:54 AM,30.9,19.9,64,29.93,10.0,WSW,12.7,-,N/A,,Mostly Cloudy,240,2013-01-05 09:54:00
5:54 AM,30.0,19.9,66,29.96,10.0,WSW,15.0,-,N/A,,Scattered Clouds,240,2013-01-05 10:54:00
6:54 AM,32.0,21.0,64,29.99,10.0,WSW,12.7,-,N/A,,Scattered Clouds,240,2013-01-05 11:54:00
7:54 AM,30.0,21.0,69,30.04,10.0,SSW,11.5,-,N/A,,Clear,200,2013-01-05 12:54:00
8:54 AM,33.1,21.9,64,30.07,10.0,SW,12.7,-,N/A,,Clear,230,2013-01-05 13:54:00
9:54 AM,37.9,23.0,55,30.12,10.0,West,11.5,20.7,N/A,,Mostly Cloudy,260,2013-01-05 14:54:00
10:54 AM,39.9,21.0,47,30.12,10.0,NW,17.3,21.9,N/A,,Mostly Cloudy,310,2013-01-05 15:54:00
11:54 AM,41.0,19.9,43,30.13,10.0,NNW,9.2,-,N/A,,Mostly Cloudy,330,2013-01-05 16:54:00
12:54 PM,41.0,19.0,41,30.13,10.0,NW,10.4,-,N/A,,Partly Cloudy,310,2013-01-05 17:54:00
1:54 PM,41.0,16.0,36,30.14,10.0,WNW,17.3,25.3,N/A,,Scattered Clouds,290,2013-01-05 18:54:00
2:54 PM,41.0,15.1,35,30.15,10.0,WNW,8.1,-,N/A,,Mostly Cloudy,300,2013-01-05 19:54:00
3:54 PM,39.0,16.0,39,30.18,10.0,NNW,6.9,-,N/A,,Mostly Cloudy,340,2013-01-05 20:54:00
4:54 PM,37.9,15.1,39,30.21,10.0,NNW,4.6,-,N/A,,Scattered Clouds,340,2013-01-05 21:54:00
5:54 PM,36.0,15.1,43,30.23,10.0,North,4.6,-,N/A,,Partly Cloudy,350,2013-01-05 22:54:00
6:54 PM,34.0,15.1,46,30.26,10.0,North,3.5,-,N/A,,Partly Cloudy,360,2013-01-05 23:54:00
7:54 PM,30.9,15.1,52,30.26,10.0,NE,4.6,-,N/A,,Scattered Clouds,40,2013-01-06 00:54:00
8:54 PM,30.0,16.0,56,30.25,10.0,Calm,Calm,-,N/A,,Mostly Cloudy,0,2013-01-06 01:54:00
9:54 PM,30.0,15.1,54,30.25,10.0,Calm,Calm,-,N/A,,Partly Cloudy,0,2013-01-06 02:54:00
10:54 PM,30.9,16.0,54,30.26,10.0,Calm,Calm,-,N/A,,Mostly Cloudy,0,2013-01-06 03:54:00
11:54 PM,28.9,19.0,67,30.22,10.0,North,3.5,-,N/A,,Mostly Cloudy,10,2013-01-06 04:54:00